Wind_Speed
12 12 11 10 10 10 10 10 10 9 8 8 7 6 5 4 3 4 4 3 3 4 4 5 5 6 6 6 6 7 8 7 8 8 8 8 8 8 9 10 10 10 11
12 12 12 10 10 9 10 11 11 9 9 8 8 7 6 5 5 4 4 4 5 5 6 6 7 7 7 7 8 8 8 8 9 9 9 9 9 9 11 11 12 12 13
12 12 12 11 10 10 10 10 11 10 10 9 9 8 7 6 6 5 6 6 6 6 7 7 8 8 8 8 8 9 9 9 10 10 10 11 11 11 12 13 14 14 14
12 12 12 12 11 11 11 10 11 11 11 10 9 9 8 7 7 6 6 6 6 7 7 8 8 8 9 9 9 9 9 10 10 11 12 12 12 13 14 15 15 16 16
12 13 13 13 12 12 12 11 11 12 11 11 10 10 9 9 8 8 7 7 7 7 8 8 9 9 9 10 10 10 11 11 12 12 13 13 14 14 15 16 17 17 18
13 13 14 14 14 13 13 12 11 11 11 10 10 10 9 10 10 9 9 9 9 10 10 10 10 10 10 11 12 12 13 13 14 14 14 15 15 16 16 17 18 18 19
13 13 13 14 14 13 13 12 11 11 10 10 10 10 10 10 11 11 11 11 11 11 11 11 12 12 13 13 13 13 14 15 15 15 16 16 16 17 18 19 20 20 21
13 13 13 13 14 14 13 13 13 12 11 11 11 11 11 12 12 12 12 13 12 12 13 13 14 14 14 14 14 14 15 16 16 16 17 17 18 19 20 21 22 22 23
14 14 14 14 14 15 14 14 13 13 13 12 12 12 13 13 13 13 14 14 14 14 14 15 15 15 15 16 16 16 16 17 17 18 19 19 20 21 22 23 24 24 25
14 14 15 15 15 15 15 15 15 14 14 14 14 13 13 13 14 14 14 14 15 15 15 16 15 15 16 16 16 17 17 18 18 19 20 21 22 23 24 25 25 26 27
14 14 15 16 16 16 16 16 16 15 15 15 15 15 15 15 15 15 16 16 16 16 16 16 16 16 16 17 18 18 18 19 20 21 22 22 23 24 25 26 27 28 29
16 16 15 16 17 17 17 17 17 17 17 16 16 16 16 16 16 16 16 16 16 16 17 17 17 17 18 18 18 19 20 21 22 23 24 24 25 26 26 27 28 30 31
16 16 16 16 17 17 17 17 17 18 17 17 17 17 17 17 17 16 16 16 16 16 17 17 17 18 19 19 20 21 22 23 24 25 25 26 27 27 28 29 30 32 33
17 17 17 17 17 18 18 19 19 19 19 19 19 18 18 17 17 17 17 16 17 18 18 18 19 19 20 22 23 24 24 25 25 26 27 28 29 30 31 32 33 34 35
17 18 18 19 19 19 20 19 19 19 19 18 18 18 18 18 18 18 18 18 19 19 19 20 20 21 22 23 24 24 25 26 27 28 29 30 31 32 33 35 35 36 37
17 18 18 19 20 20 20 19 19 19 19 18 18 19 19 19 20 20 19 20 20 21 21 22 22 22 23 24 25 26 27 28 30 30 31 32 33 34 35 36 37 38 39
18 18 18 19 19 20 20 20 19 20 20 20 19 20 20 21 21 20 20 21 22 22 22 23 24 24 25 26 27 28 29 30 31 32 33 34 35 36 37 37 38 39 40
19 19 19 19 19 19 20 20 20 19 19 19 20 20 21 21 21 21 22 22 23 23 24 25 25 26 27 28 29 30 31 31 32 33 34 35 36 37 38 39 40 42 43
21 20 20 20 20 19 20 19 19 19 20 20 20 21 21 22 22 22 22 23 24 25 26 26 27 27 28 29 31 31 32 32 33 34 35 36 37 39 40 41 42 44 45
21 21 20 21 21 20 20 20 20 20 19 20 20 21 21 21 22 22 23 24 24 25 26 27 28 29 30 31 31 32 32 33 34 35 36 38 39 41 42 43 45 46 48
21 21 21 21 21 21 21 21 21 21 20 20 21 21 22 22 22 23 23 24 25 26 27 28 29 30 30 31 32 33 34 34 35 36 38 40 41 42 44 45 47 48 49
21 21 20 20 20 20 19 20 20 20 21 21 21 22 22 23 23 24 25 25 27 28 28 29 29 30 31 32 34 35 35 36 37 39 40 42 43 44 45 47 48 49 51
21 21 21 21 21 20 20 19 20 20 21 21 22 22 22 23 23 24 24 25 26 27 28 29 30 31 32 34 35 36 37 38 39 41 42 43 44 45 47 48 49 50 51
22 22 23 23 22 22 22 21 21 21 21 21 22 23 23 24 24 24 25 25 27 28 29 30 31 33 34 36 37 37 38 40 41 42 43 44 45 47 48 50 51 51 52
23 23 23 23 23 23 23 23 23 23 23 23 23 24 25 25 25 26 26 27 28 30 31 32 33 34 36 36 36 37 39 40 42 43 44 46 47 48 50 51 52 52 53
24 24 24 24 24 24 25 25 24 25 25 25 25 25 26 26 26 27 28 29 30 31 32 33 34 35 36 36 37 38 40 41 42 44 45 46 48 49 51 52 53 53 53
Wind_Direction
225 223 226 228 227 228 225 222 223 226 230 234 233 237 244 250 256 257 260 269 282 294 303 306 311 319 317 313 314 316 318 319 319 321 324 326 327 328 329 329 327 325 323
225 224 226 227 226 230 230 226 224 227 231 232 232 237 243 247 251 254 263 273 279 289 299 303 306 308 312 310 310 312 313 313 311 313 317 317 319 319 321 323 322 320 320
224 224 225 226 226 226 226 225 226 230 234 234 236 240 243 247 250 258 264 272 280 288 295 299 302 305 308 307 310 311 310 309 308 311 311 310 309 311 314 315 315 314 313
223 221 223 223 223 226 227 230 233 235 237 235 237 238 240 242 248 257 268 275 281 289 295 301 303 303 304 307 309 312 312 311 311 310 308 306 305 307 310 312 314 312 311
224 223 224 224 226 228 231 235 235 237 237 238 238 240 241 245 249 257 267 274 279 289 294 298 301 302 303 305 308 309 309 310 310 308 307 306 305 307 309 310 312 312 310
225 224 225 226 228 230 232 233 234 235 236 239 242 241 244 249 252 258 265 271 277 285 289 293 297 300 301 301 303 303 304 306 307 306 306 305 306 306 308 310 312 312 311
223 224 227 227 227 228 228 230 232 235 236 238 242 244 246 251 256 260 266 273 278 282 285 288 293 295 296 297 299 301 301 302 303 303 304 305 305 305 308 310 310 310 310
223 225 230 229 228 228 229 230 235 235 238 241 244 248 253 257 259 262 268 275 280 281 283 286 290 292 292 293 294 296 298 300 302 303 304 305 305 305 306 307 308 308 308
227 229 230 229 228 229 231 234 235 235 239 243 248 251 254 258 262 266 272 276 277 279 282 285 288 290 290 291 293 294 296 297 299 301 303 303 304 305 305 305 306 307 307
229 231 232 230 231 233 234 235 236 238 242 247 251 255 254 256 262 268 272 275 277 279 281 284 286 290 291 293 293 294 296 298 300 302 304 305 306 306 306 305 306 307 308
232 233 234 233 232 235 236 237 237 240 245 250 254 256 255 257 264 269 272 275 277 279 281 284 285 289 292 295 295 295 296 298 301 303 304 305 306 307 307 307 307 308 308
236 236 237 236 236 236 237 238 240 243 247 250 254 257 260 261 266 270 273 276 278 279 281 283 284 287 291 293 294 294 296 298 300 301 302 304 305 307 307 308 308 309 309
237 238 239 241 238 237 239 241 243 246 248 252 255 257 260 262 266 269 272 275 277 280 283 284 285 286 289 292 294 295 297 298 300 301 302 303 304 305 306 307 307 308 308
241 241 243 242 241 241 243 245 247 248 251 254 257 257 258 259 263 267 271 272 275 280 283 285 286 288 290 292 293 296 299 300 300 301 302 303 304 305 306 306 306 307 306
243 246 247 246 245 244 246 249 251 252 251 254 255 255 257 259 262 267 269 271 275 278 281 284 286 288 290 291 293 295 298 300 301 302 302 303 303 304 305 306 306 307 307
246 249 250 249 249 250 248 248 250 251 252 255 257 259 260 262 265 269 271 273 276 278 281 284 287 289 291 293 295 296 298 299 300 301 302 303 303 304 305 306 307 307 307
248 250 250 249 250 249 251 252 251 252 253 255 259 262 262 263 265 269 272 273 276 279 282 285 287 289 292 294 295 297 298 299 300 301 302 303 304 305 306 307 308 308 308
246 249 249 249 250 250 251 252 253 253 253 257 260 262 265 265 266 270 272 274 277 280 283 286 288 290 291 293 295 297 298 299 301 302 303 304 305 306 306 307 308 308 308
248 250 250 249 251 252 252 251 251 252 255 259 261 263 265 266 267 269 273 276 278 281 283 286 289 291 293 294 296 297 298 300 301 303 304 305 305 306 307 307 308 308 308
248 249 250 251 252 253 252 252 252 254 256 259 262 264 266 267 269 271 275 278 280 283 285 287 289 290 292 295 296 297 299 300 302 303 304 305 306 306 307 308 308 309 309
248 251 251 252 252 254 253 253 255 256 257 259 262 264 264 266 270 274 276 279 282 284 286 288 290 292 294 296 297 298 300 301 302 304 305 306 306 307 307 308 309 309 310
248 249 251 253 254 255 256 255 257 259 261 262 265 266 268 272 274 275 278 281 285 287 289 290 292 293 295 297 299 300 300 302 303 304 305 306 307 307 308 308 309 309 310
248 249 250 254 258 259 261 262 263 263 264 266 268 270 271 274 277 280 281 283 287 289 292 293 294 295 297 299 300 301 302 302 304 305 305 306 307 308 309 309 310 310 310
250 250 253 256 257 259 262 264 266 267 268 269 271 272 273 275 278 281 283 285 289 291 292 293 294 296 297 299 300 301 302 303 304 305 306 307 308 309 310 310 310 311 311
254 254 255 258 258 259 261 263 266 268 270 272 273 273 275 278 280 282 284 287 290 292 293 294 295 297 298 298 300 301 303 304 305 305 306 308 308 309 310 311 312 312 312
254 255 256 258 260 261 262 264 265 268 270 272 274 275 276 278 281 284 286 288 290 292 293 294 295 296 298 299 300 302 304 305 306 307 308 308 310 311 312 312 312 312 312
Height
5838 5840 5842 5844 5846 5847 5849 5851 5852 5854 5855 5857 5857 5858 5859 5860 5860 5860 5861 5861 5861 5861 5861 5861 5860 5860 5859 5859 5858 5857 5857 5856 5856 5855 5855 5854 5853 5853 5852 5851 5850 5849 5848
5835 5837 5840 5842 5844 5845 5847 5849 5851 5852 5854 5855 5856 5857 5858 5859 5859 5860 5860 5860 5860 5860 5860 5860 5859 5859 5858 5857 5857 5856 5855 5855 5854 5854 5853 5853 5852 5851 5850 5849 5848 5847 5846
5833 5835 5837 5840 5842 5843 5845 5847 5849 5850 5852 5853 5855 5856 5857 5857 5858 5858 5859 5859 5859 5859 5859 5859 5858 5857 5857 5856 5855 5854 5853 5853 5852 5852 5851 5851 5850 5849 5848 5847 5846 5845 5843
5831 5833 5835 5838 5839 5841 5843 5845 5847 5849 5850 5851 5853 5854 5855 5856 5856 5857 5857 5858 5858 5858 5857 5857 5857 5856 5855 5854 5854 5853 5852 5851 5850 5850 5849 5849 5848 5847 5846 5845 5843 5842 5840
5829 5831 5833 5835 5837 5839 5841 5843 5844 5846 5848 5849 5851 5852 5853 5854 5854 5855 5856 5856 5856 5856 5856 5855 5855 5854 5853 5853 5852 5851 5850 5849 5849 5848 5847 5846 5845 5844 5843 5841 5840 5838 5837
5826 5828 5831 5833 5835 5837 5839 5841 5842 5844 5846 5847 5848 5850 5851 5852 5852 5853 5854 5854 5854 5854 5854 5854 5853 5852 5851 5851 5850 5849 5848 5847 5846 5845 5844 5843 5842 5841 5839 5838 5836 5835 5833
5824 5826 5828 5830 5832 5834 5836 5838 5840 5842 5843 5845 5846 5847 5848 5849 5850 5851 5851 5851 5852 5852 5851 5851 5850 5850 5849 5848 5847 5846 5845 5844 5843 5842 5841 5840 5838 5837 5836 5834 5832 5830 5828
5821 5824 5826 5827 5830 5832 5834 5836 5837 5839 5841 5842 5844 5845 5846 5847 5847 5848 5848 5848 5849 5849 5848 5848 5847 5847 5846 5845 5844 5843 5842 5841 5840 5838 5837 5835 5834 5832 5831 5829 5827 5825 5823
5819 5821 5823 5825 5827 5829 5831 5833 5835 5836 5838 5839 5841 5842 5843 5844 5844 5845 5845 5845 5845 5845 5845 5844 5844 5843 5842 5841 5840 5839 5838 5837 5836 5834 5833 5831 5829 5827 5825 5824 5822 5819 5817
5816 5818 5820 5821 5824 5826 5828 5830 5831 5833 5835 5836 5837 5838 5839 5840 5841 5841 5842 5842 5842 5842 5841 5841 5840 5839 5838 5837 5836 5835 5834 5833 5831 5830 5828 5826 5824 5822 5820 5817 5815 5813 5810
5812 5814 5816 5818 5820 5822 5824 5826 5828 5830 5831 5833 5834 5835 5836 5837 5837 5837 5838 5838 5838 5838 5837 5837 5836 5835 5834 5833 5832 5831 5830 5828 5827 5825 5823 5821 5819 5817 5814 5811 5808 5806 5803
5809 5811 5813 5815 5817 5819 5820 5822 5824 5826 5827 5829 5830 5831 5832 5833 5833 5833 5833 5833 5833 5833 5833 5832 5832 5831 5830 5829 5828 5826 5825 5824 5822 5820 5818 5815 5813 5810 5808 5805 5801 5798 5795
5806 5808 5809 5811 5813 5815 5817 5818 5820 5822 5823 5825 5826 5827 5827 5828 5828 5829 5829 5829 5829 5829 5828 5828 5827 5826 5826 5824 5823 5821 5820 5818 5816 5814 5812 5809 5807 5804 5801 5798 5794 5791 5787
5802 5804 5806 5808 5809 5811 5813 5814 5816 5817 5819 5820 5821 5822 5823 5823 5824 5824 5824 5824 5825 5824 5824 5823 5822 5822 5821 5819 5818 5816 5814 5812 5810 5807 5805 5802 5799 5796 5793 5790 5786 5782 5779
5798 5800 5801 5803 5805 5807 5808 5810 5811 5812 5814 5815 5816 5817 5817 5818 5819 5819 5820 5820 5820 5819 5819 5818 5817 5816 5815 5813 5811 5810 5807 5805 5803 5800 5797 5795 5791 5788 5785 5781 5777 5773 5769
5794 5795 5797 5799 5800 5802 5803 5805 5806 5807 5808 5809 5810 5811 5812 5813 5814 5814 5814 5814 5814 5814 5813 5812 5811 5810 5809 5807 5805 5803 5801 5798 5795 5793 5789 5786 5783 5779 5776 5772 5767 5763 5759
5789 5791 5792 5794 5795 5797 5798 5799 5800 5802 5803 5804 5805 5806 5807 5807 5808 5808 5809 5808 5808 5808 5807 5806 5805 5804 5802 5800 5798 5796 5793 5790 5787 5784 5781 5777 5774 5770 5766 5762 5757 5753 5748
5784 5786 5787 5789 5790 5791 5793 5794 5795 5796 5797 5799 5800 5800 5801 5802 5802 5802 5803 5802 5802 5801 5801 5799 5798 5796 5795 5792 5790 5787 5785 5782 5779 5775 5772 5768 5764 5760 5756 5751 5747 5742 5737
5779 5781 5782 5783 5785 5786 5787 5788 5790 5791 5792 5793 5794 5795 5795 5795 5796 5796 5796 5796 5795 5794 5793 5792 5791 5789 5787 5784 5782 5779 5776 5773 5770 5766 5762 5759 5754 5750 5745 5741 5735 5730 5725
5773 5775 5776 5778 5779 5780 5781 5783 5784 5785 5786 5787 5788 5789 5789 5790 5790 5790 5789 5789 5788 5787 5786 5784 5782 5780 5778 5776 5773 5770 5767 5764 5760 5757 5753 5748 5744 5739 5734 5729 5724 5718 5713
5768 5769 5771 5772 5774 5775 5776 5777 5778 5779 5780 5781 5782 5782 5783 5783 5783 5783 5782 5782 5781 5780 5778 5776 5774 5772 5770 5767 5764 5761 5758 5754 5751 5747 5743 5738 5733 5728 5723 5718 5712 5706 5700
5762 5764 5765 5767 5768 5769 5770 5771 5772 5773 5774 5775 5775 5776 5776 5776 5776 5776 5775 5774 5773 5772 5770 5768 5766 5763 5761 5758 5755 5752 5748 5744 5740 5736 5731 5727 5722 5716 5711 5705 5699 5693 5687
5756 5758 5759 5761 5762 5763 5764 5765 5766 5767 5768 5768 5769 5769 5769 5769 5769 5769 5768 5767 5765 5763 5762 5759 5757 5754 5752 5749 5745 5742 5738 5734 5730 5725 5721 5715 5710 5705 5699 5693 5687 5680 5673
5750 5752 5753 5755 5756 5757 5758 5759 5760 5761 5761 5762 5762 5762 5762 5762 5762 5761 5760 5759 5757 5755 5753 5751 5748 5745 5742 5739 5735 5732 5728 5723 5719 5714 5709 5704 5698 5693 5687 5680 5674 5667 5660
5744 5745 5747 5748 5749 5751 5752 5753 5753 5754 5754 5754 5755 5755 5755 5755 5754 5753 5752 5750 5748 5746 5744 5741 5739 5735 5732 5729 5725 5721 5717 5712 5708 5703 5697 5692 5686 5680 5674 5667 5660 5653 5646
5737 5738 5740 5741 5742 5743 5745 5745 5746 5747 5747 5747 5747 5747 5747 5746 5746 5745 5743 5742 5739 5737 5734 5732 5729 5726 5722 5719 5715 5710 5706 5701 5696 5691 5686 5680 5674 5668 5661 5654 5647 5640 5632